Tracking 20748 objects as of 4-Jun-2020
HD Live streaming from Space Station
objects crossing your sky now
Track the most recent launched group of Starlink satellites

BREEZE M DEB (TANK)

Track BREEZE M DEB (TANK) now!
10-day predictions


NORAD ID: 41583
Int'l Code: 2016-035C
Perigee: 374.1 km
Apogee: 13,997.2 km
Inclination: 50.7 °
Period: 261.8 minutes
Semi major axis: 13556 km
RCS: Unknown
Launch date: June 9, 2016
Source: Commonwealth of Independent States (former USSR) (CIS)
Launch site: ()

Note: This is SATELLITE DEBRIS
aabbcc
Your satellite tracking list
Your tracking list is empty




NASA's NSSDC Master Catalog

Two Line Element Set (TLE):
1 41583U 16035C   20155.68451573  .00000024  00000-0  50700-4 0  9990
2 41583  50.7450 282.3679 5024504  17.7241 354.8368  5.50014041 80019
Source of the keplerian elements: AFSPC